Terminal Aerodrome Forecast
Issued by NWS

Home | Current Version | Previous Version | Text Only | Print | Product List | Glossary On
Versions: 1 2 3 4 5 6 7 8 9 10 11 12 13 14 15 16 17
000
FTUS45 KMSO 250536
TAFSMN
TAF
KSMN 250536Z 2506/2606 00000KT 1/4SM FG OVC001
     FM251600 VRB03KT P6SM SKC
     FM252000 21010KT P6SM SCT120
      AMD LTD TO CLD VIS AND WIND=

USA.gov is the U.S. government's official web portal to all federal, state and local government web resources and services.